TimeCDT,TemperatureF,Dew PointF,Humidity,Sea Level PressureIn,VisibilityMPH,Wind Direction,Wind SpeedMPH,Gust SpeedMPH,PrecipitationIn,Events,Conditions,WindDirDegrees,DateUTC
12:56 AM,73.9,71.1,91,29.96,10.0,Calm,Calm,-,N/A,,Clear,0,2013-06-05 05:56:00
1:56 AM,73.0,70.0,90,29.96,9.0,Calm,Calm,-,N/A,,Clear,0,2013-06-05 06:56:00
2:56 AM,73.0,70.0,90,29.95,10.0,Calm,Calm,-,N/A,,Clear,0,2013-06-05 07:56:00
3:56 AM,72.0,70.0,93,29.96,10.0,Calm,Calm,-,N/A,,Scattered Clouds,0,2013-06-05 08:56:00
4:56 AM,73.0,71.1,93,29.97,10.0,SE,4.6,-,N/A,,Scattered Clouds,140,2013-06-05 09:56:00
5:56 AM,71.1,70.0,96,29.98,9.0,Calm,Calm,-,N/A,,Clear,0,2013-06-05 10:56:00
6:56 AM,73.0,71.1,93,29.99,10.0,Calm,Calm,-,N/A,,Scattered Clouds,0,2013-06-05 11:56:00
7:03 AM,73.4,71.6,94,29.96,10.0,Calm,Calm,-,N/A,,Scattered Clouds,0,2013-06-05 12:03:00
7:10 AM,73.4,71.6,94,29.96,9.0,Calm,Calm,-,N/A,,Mostly Cloudy,0,2013-06-05 12:10:00
7:56 AM,77.0,73.0,88,29.99,10.0,Calm,Calm,-,N/A,,Scattered Clouds,0,2013-06-05 12:56:00
8:56 AM,80.1,72.0,76,29.99,10.0,South,4.6,-,N/A,,Scattered Clouds,170,2013-06-05 13:56:00
9:37 AM,82.4,71.6,70,29.96,10.0,SSW,4.6,-,N/A,,Mostly Cloudy,210,2013-06-05 14:37:00
9:56 AM,82.9,71.1,67,29.98,10.0,Variable,4.6,-,N/A,,Overcast,0,2013-06-05 14:56:00
10:41 AM,84.2,71.6,66,29.97,10.0,SSE,4.6,-,N/A,,Scattered Clouds,160,2013-06-05 15:41:00
10:56 AM,84.9,71.1,63,29.99,10.0,South,5.8,-,N/A,,Scattered Clouds,180,2013-06-05 15:56:00
11:56 AM,87.1,71.1,59,29.98,10.0,Variable,3.5,-,N/A,,Scattered Clouds,0,2013-06-05 16:56:00
12:56 PM,86.0,72.0,63,29.96,10.0,South,3.5,-,N/A,,Mostly Cloudy,180,2013-06-05 17:56:00
1:56 PM,89.1,71.1,55,29.91,10.0,SE,5.8,-,N/A,,Scattered Clouds,130,2013-06-05 18:56:00
2:56 PM,89.1,69.1,52,29.89,10.0,Calm,Calm,-,N/A,,Scattered Clouds,0,2013-06-05 19:56:00
3:56 PM,90.0,69.1,50,29.88,10.0,South,5.8,-,N/A,,Scattered Clouds,180,2013-06-05 20:56:00
4:56 PM,90.0,71.1,54,29.87,10.0,Calm,Calm,-,N/A,,Mostly Cloudy,0,2013-06-05 21:56:00
5:40 PM,78.8,66.2,65,29.88,10.0,North,16.1,32.2,N/A,Thunderstorm,Thunderstorm,350,2013-06-05 22:40:00
5:52 PM,75.2,66.2,73,29.91,1.0,NNW,18.4,21.9,0.01,Rain-Thunderstorm,Heavy Thunderstorms and Rain,340,2013-06-05 22:52:00
5:56 PM,73.0,68.0,84,29.95,6.0,North,15.0,23.0,0.04,Rain-Thunderstorm,Light Thunderstorms and Rain,350,2013-06-05 22:56:00
6:12 PM,71.6,68.0,88,29.93,1.0,North,9.2,19.6,0.46,Rain-Thunderstorm,Heavy Thunderstorms and Rain,10,2013-06-05 23:12:00
6:36 PM,71.6,68.0,88,29.90,6.0,NE,5.8,-,0.51,Rain-Thunderstorm,Light Thunderstorms and Rain,40,2013-06-05 23:36:00
6:56 PM,71.1,68.0,90,29.88,10.0,ENE,10.4,-,0.51,Thunderstorm,Thunderstorm,70,2013-06-05 23:56:00
7:27 PM,71.6,68.0,88,29.86,10.0,ENE,8.1,-,N/A,,Overcast,70,2013-06-06 00:27:00
7:56 PM,70.0,66.9,90,29.87,10.0,SSE,10.4,-,N/A,,Overcast,150,2013-06-06 00:56:00
8:30 PM,69.8,66.2,88,29.84,10.0,SSE,10.4,-,N/A,,Overcast,160,2013-06-06 01:30:00
8:46 PM,69.8,66.2,88,29.88,10.0,SSE,6.9,-,N/A,,Overcast,150,2013-06-06 01:46:00
8:56 PM,70.0,66.9,90,29.96,10.0,Calm,Calm,-,N/A,,Overcast,0,2013-06-06 01:56:00
9:20 PM,71.6,66.2,83,29.93,10.0,Calm,Calm,-,N/A,,Overcast,0,2013-06-06 02:20:00
9:34 PM,71.6,66.2,83,29.93,10.0,Calm,Calm,-,N/A,,Overcast,0,2013-06-06 02:34:00
9:56 PM,70.0,68.0,93,29.94,10.0,Calm,Calm,-,N/A,,Mostly Cloudy,0,2013-06-06 02:56:00
10:30 PM,71.6,68.0,88,29.90,10.0,Calm,Calm,-,N/A,,Overcast,0,2013-06-06 03:30:00
10:48 PM,69.8,68.0,94,29.91,10.0,Calm,Calm,-,N/A,,Overcast,0,2013-06-06 03:48:00
10:56 PM,70.0,68.0,93,29.94,10.0,Calm,Calm,-,N/A,,Overcast,0,2013-06-06 03:56:00
11:56 PM,69.1,66.9,93,29.94,9.0,South,3.5,-,N/A,,Overcast,190,2013-06-06 04:56:00